G4ZMG Weather Reports


Display with metric or nautical units.
time (UTC)temp
F
wind
direction
speed
MPH
gust
MPH
rain 1hr
in
rain 24hr
in
rain mn
in
humidity
%
barometer
mb
20260505171004 55 349 0.0 1.0 0.00 0.00 0.00 68 1012.1
20260505170039 55 355 8.0 8.0 0.00 0.00 0.00 67 1012.2
20260505165023 55 322 0.0 8.0 0.00 0.00 0.00 66 1012.2
20260505164004 55 295 1.0 1.0 0.00 0.00 0.00 66 1012.1
20260505163024 55 42 0.0 5.0 0.00 0.00 0.00 65 1012.0
20260505162010 55 4 0.0 8.0 0.00 0.00 0.00 65 1012.1
20260505161043 55 328 2.0 7.0 0.00 0.00 0.00 66 1012.1
20260505153004 55 322 1.0 7.0 0.00 0.00 0.00 64 1012.2
20260505152003 56 4 0.0 1.0 0.00 0.00 0.00 64 1012.3
20260505151003 56 350 0.0 8.0 0.00 0.00 0.00 64 1012.2
20260505125003 56 14 0.0 10.0 0.00 0.00 0.00 65 1012.5
20260505124002 57 45 0.0 7.0 0.00 0.00 0.00 64 1012.4
20260505123003 58 49 0.0 10.0 0.00 0.00 0.00 64 1012.5
20260505122003 56 359 0.0 11.0 0.00 0.00 0.00 58 1012.4
20260505121003 57 326 0.0 8.0 0.00 0.00 0.00 59 1012.5
20260505120006 57 16 0.0 7.0 0.00 0.00 0.00 58 1012.6
20260505115004 58 65 0.0 7.0 0.00 0.00 0.00 59 1012.6
20260505114002 57 356 1.0 10.0 0.00 0.00 0.00 59 1012.6
20260505113003 59 2 0.0 11.0 0.00 0.00 0.00 56 1012.5
20260505112004 57 276 0.0 14.0 0.00 0.00 0.00 57 1012.6
20260505111003 57 352 0.0 6.0 0.00 0.00 0.00 60 1012.5
20260505102002 56 10 0.0 5.0 0.00 0.00 0.00 60 1013.1
20260505101003 55 54 0.0 8.0 0.00 0.00 0.00 61 1013.3
20260505100005 55 14 1.0 8.0 0.00 0.00 0.00 61 1013.1
20260505095002 55 342 0.0 4.0 0.00 0.00 0.00 61 1013.2
20260505094003 56 29 0.0 9.0 0.00 0.00 0.00 63 1013.1
20260505093027 57 41 0.0 10.0 0.00 0.00 0.00 62 1013.2
20260505092003 56 31 0.0 9.0 0.00 0.00 0.00 65 1013.1
20260505091003 56 37 0.0 9.0 0.00 0.00 0.00 66 1013.1
20260505090007 55 42 0.0 11.0 0.00 0.00 0.00 67 1013.0
20260505085003 55 1 0.0 7.0 0.00 0.00 0.00 68 1013.2
20260505084004 55 339 0.0 10.0 0.00 0.00 0.00 67 1013.3
20260505083004 54 345 0.0 1.0 0.00 0.00 0.00 68 1013.3
20260505082003 54 47 0.0 6.0 0.00 0.00 0.00 70 1013.4
20260505081004 53 64 0.0 9.0 0.00 0.00 0.00 72 1013.5
20260505080007 52 349 0.0 8.0 0.00 0.00 0.00 71 1013.6
20260505075003 52 6 0.0 3.0 0.00 0.00 0.00 74 1013.5
20260505074003 50 28 0.0 4.0 0.00 0.00 0.00 75 1013.6
20260505073003 50 16 0.0 2.0 0.00 0.00 0.00 76 1013.6
20260505072003 50 341 0.0 1.0 0.00 0.00 0.00 77 1013.6
20260505071002 50 352 0.0 3.0 0.00 0.00 0.00 78 1013.7
20260505070005 49 18 0.0 0.0 0.00 0.00 0.00 78 1013.7
20260505065002 49 359 0.0 2.0 0.00 0.00 0.00 80 1013.7
20260505064001 49 352 0.0 1.0 0.00 0.00 0.00 80 1013.8
20260505063002 48 56 0.0 0.0 0.00 0.00 0.00 80 1013.7
20260505062003 48 10 0.0 0.0 0.00 0.00 0.00 80 1013.6
20260505061004 48 359 0.0 0.0 0.00 0.00 0.00 80 1013.6
20260505060007 48 355 0.0 1.0 0.00 0.00 0.00 80 1013.6
20260505055002 48 36 0.0 0.0 0.00 0.00 0.00 80 1013.5
20260505054003 48 345 0.0 0.0 0.00 0.00 0.00 80 1013.6
20260505053004 48 5 0.0 1.0 0.00 0.00 0.00 80 1013.7
20260505052003 48 2 0.0 5.0 0.00 0.00 0.00 80 1013.5
20260505051003 48 30 0.0 3.0 0.00 0.00 0.00 80 1013.3
20260505041003 48 16 0.0 6.0 0.00 0.00 0.00 81 1013.4
20260505040006 48 360 0.0 5.0 0.00 0.00 0.00 81 1013.3
20260505035003 48 349 0.0 3.0 0.00 0.00 0.00 81 1013.4
20260505034003 49 328 0.0 3.0 0.00 0.00 0.00 80 1013.2
20260505033002 49 348 0.0 5.0 0.00 0.00 0.00 80 1013.4
20260505032002 49 320 0.0 12.0 0.00 0.00 0.00 79 1013.4
20260505031003 49 328 0.0 10.0 0.00 0.00 0.00 79 1013.5
20260505030005 49 347 0.0 5.0 0.00 0.00 0.00 78 1013.5
20260505025003 49 322 0.0 3.0 0.00 0.00 0.00 78 1013.5
20260505024004 49 285 0.0 8.0 0.00 0.00 0.00 78 1013.5
20260505023002 49 330 2.0 10.0 0.00 0.00 0.00 78 1013.5
20260505022006 49 30 0.0 8.0 0.00 0.00 0.00 79 1013.3
20260505021007 49 8 0.0 11.0 0.00 0.00 0.00 80 1013.4
20260505020008 49 314 0.0 10.0 0.00 0.00 0.00 82 1013.2
20260505015009 49 351 0.0 9.0 0.00 0.00 0.00 83 1013.3
20260505014004 49 328 0.0 12.0 0.00 0.00 0.00 85 1013.5
20260505013007 49 349 0.0 3.0 0.00 0.00 0.00 85 1013.6
20260505012008 49 338 0.0 1.0 0.00 0.00 0.00 85 1013.8
20260505011007 49 333 0.0 1.0 0.00 0.00 0.00 85 1013.7
20260505010008 49 317 0.0 4.0 0.00 0.00 0.00 86 1013.7
20260505005005 49 344 0.0 2.0 0.00 0.00 0.00 86 1013.8
20260505004009 49 347 0.0 1.0 0.00 0.00 0.00 87 1013.9
20260505003005 49 7 0.0 8.0 0.00 0.00 0.00 88 1014.0
20260505002006 49 349 0.0 3.0 0.00 0.00 0.00 88 1014.1
20260505001004 50 357 0.0 5.0 0.00 0.00 0.00 88 1014.2
20260505000013 50 13 0.0 1.0 0.00 0.00 0.00 88 1014.2
20260504235008 50 9 0.0 0.0 0.00 0.00 0.00 88 1014.3
20260504234005 50 18 0.0 0.0 0.00 0.00 0.00 88 1014.3
20260504233005 50 323 0.0 0.0 0.00 0.00 0.00 88 1014.2
20260504232003 50 322 0.0 0.0 0.00 0.00 0.00 87 1014.1
20260504231003 50 322 0.0 1.0 0.00 0.00 0.00 86 1014.1
20260504230006 50 306 0.0 0.0 0.00 0.00 0.00 86 1014.1
20260504225003 50 321 0.0 0.0 0.00 0.00 0.00 86 1014.2
20260504224004 50 326 0.0 0.0 0.00 0.00 0.00 86 1014.2
20260504223004 50 328 0.0 0.0 0.00 0.00 0.00 86 1014.3
20260504222004 50 322 0.0 0.0 0.00 0.00 0.00 85 1014.2
20260504221004 50 334 0.0 0.0 0.00 0.00 0.00 85 1014.2
20260504220006 51 339 0.0 0.0 0.00 0.00 0.00 85 1014.3
20260504215003 51 341 0.0 0.0 0.00 0.00 0.00 85 1014.3
20260504214004 52 347 0.0 0.0 0.00 0.00 0.00 85 1014.4
20260504213004 52 19 0.0 0.0 0.00 0.00 0.00 84 1014.5
20260504212005 52 22 0.0 0.0 0.00 0.00 0.00 83 1014.4
20260504211003 53 23 0.0 0.0 0.00 0.00 0.00 83 1014.5
20260504210006 53 23 0.0 0.0 0.00 0.00 0.00 83 1014.5
20260504205004 53 32 0.0 0.0 0.00 0.01 0.00 82 1014.5
20260504204003 53 16 0.0 0.0 0.00 0.01 0.00 82 1014.4
20260504203004 54 10 0.0 0.0 0.00 0.01 0.00 82 1014.3
20260504202004 54 41 0.0 0.0 0.00 0.01 0.00 81 1014.3
20260504201004 54 27 0.0 0.0 0.00 0.01 0.00 81 1014.3
20260504200006 54 9 0.0 0.0 0.00 0.01 0.00 80 1014.2
20260504195005 55 41 0.0 0.0 0.00 0.02 0.00 80 1014.0
20260504194004 55 4 0.0 0.0 0.00 0.02 0.00 79 1014.0
20260504193004 55 4 0.0 0.0 0.00 0.02 0.00 79 1013.7
20260504192003 55 28 0.0 0.0 0.00 0.02 0.00 79 1013.6
20260504191004 56 32 0.0 0.0 0.00 0.02 0.00 78 1013.6
20260504190006 56 68 0.0 2.0 0.00 0.02 0.00 78 1013.6
20260504185005 56 61 0.0 0.0 0.00 0.06 0.00 78 1013.7
20260504184004 56 52 0.0 1.0 0.00 0.06 0.00 77 1013.5
20260504183003 57 62 0.0 0.0 0.00 0.06 0.00 76 1013.4
20260504182004 57 37 0.0 9.0 0.00 0.06 0.00 75 1013.3
20260504181004 58 43 0.0 2.0 0.00 0.06 0.00 75 1013.1
20260504180006 58 2 0.0 0.0 0.00 0.06 0.00 74 1013.1
20260504175004 58 81 0.0 0.0 0.00 0.22 0.00 73 1013.1
20260504174003 58 55 0.0 0.0 0.00 0.22 0.00 73 1013.1
20260504173004 59 39 0.0 0.0 0.00 0.22 0.00 73 1012.9
20260504172003 59 360 0.0 1.0 0.00 0.22 0.00 72 1013.1